THORAD AGENA D DEB, 42533

Orbit data source: Space-Track

THORAD AGENA D DEB, 42533 is space debris in SSO originally from a launch on Wed, 08 Apr 1970 UTC launched from the Air Force Western Test Range (AFWTR). Debris objects in space refer to the collection of defunct objects orbiting the Earth. Examples of debris include non-operational satellites, rocket bodies, and fragments generated from explosions, collisions, or faulty payload assembly.

Loading next visibility...
Identifier
42533, 1970-025SP
Orbit
SSO
Country
Flag of USUS
Related business
Manufacturer
Unknown
Mission
Spacecraft
Bus & Motor
Unknown
Mass
Unknown
Launch date (UTC)
1970-04-08 (56 years ago)
Launch vehicle
Unknown
Launch site
Air Force Western Test Range (AFWTR)
Object type
Payload
Rocket body
Debris
Shape & HBR
Unknown shape, 0.1 m
Radar Cross Section
Small (<0.1 m²)

Expand to show TLE details & history
Last TLE update: 20 hours ago

TLE from 20 hours ago
0 THORAD AGENA D DEB
1 42533U 70025SP  26255.57859208  .00001043  00000-0  84357-3 0  9993
2 42533  99.6539 175.9582 0136324 104.3997 257.2333 13.88412169646025
Epoch: 2026-09-12T13:53Z
TLE epoch observation values (Epoch: 2026-09-12T13:53:10.355Z)
Latitude
-0.00007°
Longitude
-23.92051°
Altitude
960.361 km
Speed
7.36 km/s
True Right ascension
11h 43m 49s
True Declination
0° 00' 00"
Sunlit
Object was in daylight at epoch
Visualization orbit readout
Latitude
Unknown
Longitude
Unknown
Altitude
Unknown
Speed
Unknown
Apparent Right ascension
Unknown
Apparent Declination
Unknown
Sunlit
N/A
Visualization observer readout
Local Sidereal Time
02:09:25
Azimuth
Unknown
Elevation
Unknown
Doppler factor
Unknown
Orbital elements
Apogee altitude
1,031.095 km
Perigee altitude
831.801 km
Semi-major axis
7,309.585 km
Eccentricity
0.01363
Inclination
99.6539°
RAAN
175.9582°
Arg. of periapsis
104.3997°
True anomaly
255.71566°
Mean anomaly
257.2333°
Eccentric anomaly
256.47389°
Mean motion
3.47299 °/min
Orbital period
103.66 mins
BSTAR
0.00084357
Loading maneuver chart data...
Computing Atmospheric mass density...

Documentation

Showing up to 5 results
|